Regional Weather Roundup
Issued by NWS Albany, NY

Home | Current Version | Previous Version | Text Only | Print | Product List | Glossary On
Versions: 1 2 3 4 5 6 7 8 9 10 11 12 13 14 15 16 17 18 19 20 21 22 23 24 25 26 27 28 29 30 31 32 33 34 35 36 37 38 39 40 41 42 43 44 45 46 47 48 49 50
000
ASUS41 KALY 302110
RWRALY

NEW YORK STATE HOURLY WEATHER ROUNDUP
NATIONAL WEATHER SERVICE ALBANY NY
500 PM EDT WED JUL 30 2014

NOTE: "FAIR" INDICATES FEW OR NO CLOUDS BELOW 12,000 FEET WITH NO
SIGNIFICANT WEATHER AND/OR NO OBSTRUCTIONS TO VISIBILITY.

NYZ032-033-038>043-046>054-057>066-NYZ062>081-302200-
EAST


CITY           SKY/WX    TMP DP  RH WIND       PRES   REMARKS
ALBANY         PTSUNNY   76  53  44 SW8       29.98S
GLENS FALLS    SUNNY     75  49  39 S5        29.97S
POUGHKEEPSIE   MOSUNNY   78  50  37 SW8       29.99R
NEWBURGH       MOSUNNY   73  54  49 W7        30.02R
MONTGOMERY     PTSUNNY   78  55  44 SW9       30.00R
WHITE PLAINS   MOSUNNY   77  48  35 CALM      30.00S
ISLIP          MOSUNNY   78  53  41 SW10      30.00S
NEW YORK CITY  MOSUNNY   80  47  31 W12G18    30.00R
CENTRAL PARK   PTSUNNY   77  53  43 VRB3      30.03R
$$

NYZ005>009-017-018-044>046-055-056-302200-
CENTRAL


CITY           SKY/WX    TMP DP  RH WIND       PRES   REMARKS
FULTON         LGT RAIN  62  57  83 S3        29.97F
SYRACUSE       CLOUDY    74  55  51 SW6       29.96R
ROME           PTSUNNY   73  54  51 S6        29.97S
ELMIRA         MOSUNNY   75  55  49 SW15      29.97F
BINGHAMTON     PTSUNNY   68  54  60 SW8       30.01S
MONTICELLO     MOSUNNY   72  52  49 SW7       30.04R
$$

NYZ026>034-041>043-302200-
NORTH


CITY           SKY/WX    TMP DP  RH WIND       PRES   REMARKS
WATERTOWN      MOSUNNY   70  56  61 W8        29.94S
FORT DRUM      NOT AVBL
MASSENA        MOSUNNY   72  56  57 SW10      29.94S
SARANAC LAKE   CLOUDY    69  49  48 S10       29.97S
PLATTSBURGH    MOSUNNY   75  57  53 SE12      29.93F
$$

NYZ001>004-010>016-019>021-302200-
WEST


CITY           SKY/WX    TMP DP  RH WIND       PRES   REMARKS
NIAGARA FALLS  TSTM      63  58  83 SW9       29.97R
BUFFALO        PTSUNNY   68  52  56 NE5       29.96F THUNDER
DUNKIRK        MOSUNNY   70  58  65 W15G23    29.98R
JAMESTOWN      PTSUNNY   64  57  77 SW10      30.01R
WELLSVILLE     CLOUDY    64  55  72 SW6       30.03S
ROCHESTER      LGT RAIN  65  59  81 S6        29.96S
PENN YAN       PTSUNNY   72  55  55 NW13G21   29.97R
$$

             KEY
       WCI = WIND CHILL INDEX
       VSB = VISIBILITY
       HX  = HEAT INDEX
$$



USA.gov is the U.S. government's official web portal to all federal, state and local government web resources and services.